Regional Weather Roundup
Issued by NWS

Home | Current Version | Previous Version | Text Only | Print | Product List | Glossary Off
Versions: 1 2 3 4 5 6 7 8 9 10 11 12 13 14 15 16 17 18 19 20 21 22 23 24 25 26 27

000
ASUS45 KBOU 021107
RWRCO

WEATHER ROUNDUP FOR COLORADO
NATIONAL WEATHER SERVICE DENVER/BOULDER CO
400 AM MST FRI DEC 02 2016

NOTE: "FAIR" INDICATES FEW OR NO CLOUDS BELOW 12000 FEET WITH NO
SIGNIFICANT WEATHER AND/OR OBSTRUCTIONS TO VISIBILITY.

COZ001>005-013-030-031-021200-
...NORTHWEST COLORADO...

CITY           SKY/WX    TMP DP  RH WIND       PRES   REMARKS
CRAIG          MOCLDY    18  14  84 CALM      30.09S
HAYDEN         MOCLDY    18  14  86 CALM      30.07R
MEEKER         CLOUDY    17  15  92 CALM      30.05F
MOUNT WERNER   NOT AVBL
STEAMBOAT SPGS CLOUDY    16  13  89 CALM      30.06R
WALDEN           N/A     10   5  79 CALM      30.04R
$$

COZ006>008-011-021200-
...WEST CENTRAL VALLEYS...

CITY           SKY/WX    TMP DP  RH WIND       PRES   REMARKS
GRAND JUNCTION CLOUDY    28  24  85 CALM      30.03F
MONTROSE       FAIR      20  15  81 SE7       30.05S WCI  11
EAGLE          FLURRIES  21  19  92 CALM      30.07S
RIFLE          CLOUDY    25  21  85 CALM      30.06S
DELTA          NOT AVBL
NUCLA          FAIR      23  18  80 SE6       30.03S WCI  16
$$

COZ017>023-064>068-021200-
...SOUTHWEST COLORADO...

CITY           SKY/WX    TMP DP  RH WIND       PRES   REMARKS
DURANGO        FAIR      20  14  77 N3        29.94F
CORTEZ         FAIR      17  13  84 E7        29.97F WCI   8
PAGOSA SPRINGS FAIR      13  11  94 CALM      29.95F
TELLURIDE      FAIR      15  11  85 SE3       29.94F
WOLF CREEK PAS MOCLDY     9   9 100 NE3       29.95F
$$

COZ009-010-012-014-032>034-037-058>063-021200-
...CENTRAL COLORADO...

CITY           SKY/WX    TMP DP  RH WIND       PRES   REMARKS
ASPEN          CLOUDY    14  10  84 S3        29.98F
BUENA VISTA    NOT AVBL
COPPER MTN     CLOUDY    12   3  67 MISG      29.92F
BERTHOUD PASS  CLOUDY     3  -8  60 SW7       29.92S WCI  -9
COTTONWOOD PAS FAIR      19  10  68 CALM      29.96S
GUNNISON       FAIR      11   7  84 CALM      30.00F
KREMMLING      LGT SNOW  19  16  86 CALM      30.06S
LEADVILLE      CLOUDY     7   2  80 CALM      29.94F
MONARCH PASS     N/A      9   5  85 S9        30.02S WCI  -5
SALIDA         FAIR      14   6  68 CALM      30.09F
SUNLIGHT       LGT SNOW N/A N/A N/A CALM      29.97F
WILKERSON PASS FAIR      10   5  79 SW5       29.97S WCI   2
$$

COZ069>075-021200-
...SAN LUIS VALLEY/SANGRE DE CRISTO MOUNTAINS...

CITY           SKY/WX    TMP DP  RH WIND       PRES   REMARKS
ALAMOSA        FAIR       4   0  83 NW3       29.98F
LA VETA PASS   MOCLDY    18   9  68 N12       29.95F WCI   5
SAGUACHE       FAIR      12   7  79 NW8       30.00S WCI   1
$$

COZ035-036-038>040-021200-
...NORTHERN COLORADO FRONT RANGE...

CITY           SKY/WX    TMP DP  RH WIND       PRES   REMARKS
DENVER INTL AP MOCLDY    24  12  60 SE10      30.07S WCI  14
DMNS CITY PARK   N/A     24  11  56 E6        30.08S WCI  17
AURORA         MOCLDY    22  12  64 S7        30.07S WCI  14
FRONT RANGE AP CLOUDY    27  18  69 SE3       30.08S
ERIE MUNI ARPT MOCLDY    16  11  81 CALM      30.10R
BOULDER MUN AP FAIR      27  10  50 W6        30.09S WCI  20
CENTENNIAL     MOCLDY    20   9  62 SE5       30.07R WCI  13
BROOMFIELD     CLOUDY    27  12  54 N10       30.08R WCI  17
FORT COLLINS   FAIR      19   9  63 CALM      30.11R
LONGMONT       FAIR      20  12  71 CALM      30.12R
$$

COZ041-046-047-076>085-087-088-021200-
...PIKES PEAK/PALMER DIVIDE AND SOUTHERN FOOTHILLS...

CITY           SKY/WX    TMP DP  RH WIND       PRES   REMARKS
COLO. SPRINGS  FAIR      18   4  54 N8        30.05F WCI   8
A. F. ACADEMY  MOCLDY    13   4  68 N9        30.04S WCI   1
SCHRIEVER AFB  NOT AVBL
ELLICOTT       FAIR     N/A N/A N/A E12         N/A
FALCON         FAIR      19   6  55 N7        30.04F WCI  10
FORT CARSON    FAIR      18   6  59 NW9       30.03F WCI   7
LIMON          MOCLDY     8   5  87 N3        30.09S
MONUMENT HILL  MOCLDY    12   5  73 CALM      30.05R
TRINIDAD       FAIR      18   7  62 NW7       30.02F WCI   9
$$

COZ042>045-048>051-090-091-021200-
...NORTHEAST COLORADO...

CITY           SKY/WX    TMP DP  RH WIND       PRES   REMARKS
GREELEY ARPT   FAIR      17  10  74 CALM      30.12R
AKRON          CLOUDY    25  17  72 CALM      30.10R
BURLINGTON     FAIR      16   6  65 W9        30.12R WCI   4
WRAY           NOT AVBL
STERLING       FAIR      18  14  86 CALM      30.11R
HOLYOKE        FAIR      25  18  74 NW7       30.12R WCI  17
FORT MORGAN    CLOUDY    22  14  74 W5        30.12R WCI  15
$$

COZ086-089-092>099-021200-
...SOUTHEAST COLORADO...

CITY           SKY/WX    TMP DP  RH WIND       PRES   REMARKS
PUEBLO         FAIR      19   8  62 CALM      30.07S
LA JUNTA       FAIR      17  11  77 SW3       30.09R
LAMAR          MIX PCPN  11   5  77 CALM      30.09S
SPRINGFIELD      N/A     13   6  74 W3        30.07S
$$




USA.gov is the U.S. government's official web portal to all federal, state and local government web resources and services.